Reflectivity
-20 -20 -20 -20 -20 -20 -20 -20 -20 -20 -20 -20 -20 -20 -20 -20 -20 -20 -20 -20 -20 -20 -20 -15 0 -20 -20 -20 -20 -20 -20 -20 -20 -20 -20 -20 -20 -20 -20 -20 -20 -20 -20 -20
-20 -20 -20 -20 -20 -20 -20 -20 -20 -20 -20 -20 -20 -20 -20 -20 -20 -20 -20 -20 -20 -20 -20 -10 -20 -20 -20 -20 -20 -20 -20 -20 -20 -20 -20 -20 -20 -20 -20 -20 -20 -20 -20 -20
-20 -20 -20 -20 -20 -20 -20 -20 -20 -20 -20 -20 -20 -20 -20 -20 -20 -20 -20 -20 -20 -20 -20 -20 -20 -20 -20 -20 -20 -20 -20 -20 -20 -20 -20 -20 -20 -20 -20 -20 -20 -20 -20 -20
-20 -20 -20 -20 -20 -20 -20 -20 -20 -20 -20 -20 -20 -20 -20 -20 -20 -20 -20 -20 -20 -20 -20 -20 -20 -20 -20 -20 -20 -20 -20 -20 -20 -20 -20 -20 -20 -20 -20 -20 -20 -20 -20 -20
-20 -20 -20 -20 -20 -20 -20 -20 -20 -20 -20 -20 -20 -20 -20 -20 -20 -20 -20 -20 -20 -20 -20 -20 -20 -20 -20 -20 -20 -20 -20 -20 -20 -20 -20 -20 -20 -20 -20 -20 -20 -20 -20 -20
-20 -20 -20 -20 -20 -20 -20 -20 -20 -20 -20 -20 -20 -20 -20 -20 -20 -20 -20 -20 -20 -20 -20 -20 -20 -20 -20 -20 -20 -20 -20 -20 -20 -20 -20 -20 -20 -20 -20 -20 -20 -20 -20 -20
-20 -7 -13 -20 -20 -20 -20 -20 -20 -20 -20 -20 -20 -20 -20 -20 -20 -20 -20 -20 -20 -20 -20 -20 -20 -20 -20 -20 -20 -20 -20 -20 -20 -20 -20 -20 -20 -20 -20 -20 -20 -20 -20 -20
-20 -20 -12 -20 -20 -20 -20 -20 -20 -20 -20 -20 -20 -20 -20 -20 -20 -20 -20 -20 -20 -20 -20 -20 -20 -20 -20 -20 -20 -20 -20 -20 -20 -20 -20 -20 -20 -20 -20 -20 -20 -20 -20 -20
-20 -20 -20 -20 -20 -20 -20 -20 -20 -20 -20 -20 -20 -20 -20 -20 -20 -20 -20 -20 -20 -20 -20 -20 -20 -20 -20 -20 -20 -20 -20 -20 -20 -20 -20 -20 -20 -20 -20 -20 -20 -20 -20 -20
-20 -20 -20 -20 -20 -20 -20 -20 -20 -20 -20 -20 -20 -20 -20 -20 -20 -20 -20 -20 -20 -20 -20 -20 -20 -20 -20 -20 -20 -20 -20 -20 -20 -20 -20 -20 -20 -20 -20 -20 -20 -20 -20 -20
-20 -20 -20 -20 -20 -20 -20 -20 -20 -20 -20 -20 -20 -20 -20 -20 -20 -20 -20 -20 -20 -20 -20 -20 -20 -20 -20 -20 -20 -20 -20 -20 -20 -20 -20 -20 -20 -20 -20 -20 -20 -20 -20 -20
-20 -20 -20 -20 -20 -20 -20 -20 -20 -20 -20 -20 -20 -20 -20 -20 -20 -20 -20 -20 -20 -20 -20 -20 -20 -20 -20 -20 -20 -20 -20 -20 -20 -20 -20 -20 -20 -20 -20 -20 -20 -20 -20 -20
-20 -20 -20 -20 -20 -20 -20 -20 -20 -20 -20 -20 -20 -20 -20 -20 -20 -20 -20 -20 -20 -20 -20 -20 -20 -20 -20 -20 -20 -20 -19 -20 -20 -20 -20 -20 -20 -20 -20 -20 -20 -20 -20 -20
-20 -20 -20 -20 -20 -20 -20 -20 -20 -20 -20 -20 -20 -20 -20 -20 -20 -20 -20 -20 -20 -20 -20 -20 -20 -20 -20 -20 -20 -20 -18 -20 -20 -20 -20 -20 -20 -20 -20 -20 -20 -20 -20 -20
-20 -20 -20 -20 -20 -20 -20 -20 -20 -20 -20 -20 -20 -20 -20 -20 -20 -20 -20 -20 -20 -20 -20 -20 -20 -19 -20 -18 -20 -19 -20 -20 -20 -20 -20 -20 -20 -20 -20 -20 -20 -20 -20 -20
-20 -20 -20 -20 -20 -20 -20 -20 -20 -20 -20 -20 -20 -20 -20 -20 -20 -20 -20 -20 -20 -20 -20 -20 -15 -13 -20 1 -20 -19 -20 -20 -20 -20 -20 -20 -20 -20 -20 -20 -20 -20 -20 -20
-20 -20 -20 -20 -20 -20 -20 -20 -20 -20 -20 -20 -20 -20 -20 -20 -20 -20 -20 -20 -20 -20 -20 -0 -8 20 -17 -20 7 -18 -20 -20 -20 -20 -20 -20 -20 -20 -20 -20 -20 -20 -20 -20
-20 -20 -20 -20 -20 -20 -20 -20 -20 -20 -20 -20 -20 -20 -20 -20 -20 -20 -20 -20 -20 -13 4 -20 -20 -11 -20 -13 1 -20 -20 -20 -20 -20 -20 -20 -20 -20 -20 -20 -20 -20 -20 -20
-20 -20 -20 -20 -20 -20 -20 -20 -20 -20 -20 -20 -20 -20 -20 -20 -20 -20 -20 -20 -20 -20 -20 -20 -12 -2 2 1 -20 -20 -20 -20 -20 -20 -20 -20 -20 -20 -20 -20 -20 -20 -20 -20
-20 -20 -20 -20 -20 -20 -20 -20 -20 -20 -20 -20 -20 -20 -20 -20 -20 -20 -20 -20 -20 -20 -20 -20 -20 -15 -10 -18 -20 -20 -20 -20 -20 -20 -20 -20 -20 -20 -20 -20 -20 -20 -20 -20
-20 -20 -20 -20 -20 -20 -20 -20 -20 -20 -20 -20 -20 -20 -20 -20 -20 -20 -20 -20 -20 -20 -20 -20 -20 -1 -4 -20 -20 -20 -20 -20 -20 -20 -20 -20 -20 -20 -20 -20 -20 -20 -20 -20
-20 -20 -20 -20 -20 -20 -20 -20 -20 -20 -20 -20 -20 -20 -20 -20 -20 -20 -20 -20 -20 -20 -20 -20 -20 -20 -20 -20 -20 -20 -20 -20 -20 -20 -20 -20 -20 -20 -20 -20 -20 -20 -20 -20
-20 -20 -20 -20 -20 -20 -20 -20 -20 -20 -20 -20 -20 -20 -20 -20 -20 -20 -20 -20 -20 -20 -20 -20 -20 -20 -20 -20 -20 -20 -20 -20 -20 -20 -20 -20 -20 -20 -20 -20 -20 -20 -20 -20
-20 -20 -20 -20 -20 -20 -20 -20 -20 -20 -20 -20 -20 -20 -20 -20 -20 -20 -20 -20 -20 -20 -20 -20 -20 -20 -20 -20 -20 -20 -20 -20 -20 -20 -20 -20 -20 -20 -20 -20 -20 -20 -20 -20
-20 -20 -20 -20 -20 -20 -20 -20 -20 -20 -20 -20 -20 -20 -20 -20 -20 -20 -20 -20 -20 -20 -20 -20 -20 -20 -20 -20 -20 -20 -20 -20 -20 -20 -20 -20 -20 -20 -20 -20 -20 -20 -20 -20
-20 -20 -20 -20 -20 -20 -20 -20 -20 -20 -20 -20 -20 -20 -20 -20 -20 -20 -20 -7 -20 -20 -20 -20 -20 -20 -20 -20 -20 -20 -20 -20 -20 -20 -20 -20 -20 -20 -20 -20 -20 -20 -20 -20
-20 -20 -20 -20 -20 -20 -20 -20 -20 -20 -20 -20 -20 -20 -20 -20 -20 -12 -1 -18 -20 -20 -20 -20 -20 -20 -20 -20 -20 -20 -20 -20 -20 -20 -20 -20 -20 -20 -20 -20 -20 -20 -20 -20
Wind_Speed
2 3 2 1 2 4 5 3 6 6 9 12 8 11 13 14 13 17 18 18 17 15 14 12 12 11 10 9 9 9 8 7 6 5 5 3 3 2 3 4 5 6 6 6
3 3 4 4 2 5 8 6 11 11 18 9 10 5 6 11 15 18 18 19 18 17 14 13 14 13 11 11 10 10 9 8 7 6 5 4 2 2 3 4 5 5 6 6
1 2 4 6 7 9 5 5 5 9 12 5 7 10 10 13 17 21 20 19 20 17 15 15 15 14 13 12 11 10 9 8 7 6 5 5 2 3 4 5 6 6 6 7
3 2 4 1 4 3 7 7 9 13 15 15 14 7 8 9 15 15 17 19 19 15 15 16 14 13 12 12 12 11 9 8 7 6 5 5 2 3 4 5 6 6 6 7
2 3 5 5 3 4 2 4 7 10 12 5 2 4 6 7 11 15 19 17 16 14 15 14 15 14 14 13 12 11 10 9 7 6 5 4 3 3 5 6 6 6 6 7
2 2 4 4 4 4 3 8 1 3 5 2 2 2 3 7 9 10 12 12 13 14 13 14 15 15 15 14 13 12 10 9 7 6 5 4 2 3 4 5 6 6 7 7
4 4 7 4 5 5 3 5 1 2 3 6 4 4 5 5 7 8 9 12 12 14 15 16 15 15 15 13 13 11 9 8 6 5 5 3 2 3 4 5 6 7 7 6
3 4 9 7 5 7 6 2 3 3 4 7 7 4 3 7 8 10 10 11 13 13 14 14 16 15 14 14 11 10 10 8 7 5 4 3 4 3 4 5 6 7 7 6
9 7 1 5 4 3 3 4 4 4 4 8 9 8 8 9 10 10 11 11 12 13 14 13 15 15 14 12 12 12 10 8 7 6 5 4 4 4 4 4 5 5 6 7
2 5 8 8 5 7 7 10 9 8 7 8 12 12 12 9 9 10 11 13 12 13 15 15 15 14 12 13 13 12 11 9 7 6 5 5 3 3 3 4 4 5 5 7
5 5 6 10 11 13 13 12 12 10 8 12 11 11 14 11 12 12 11 11 12 13 13 15 14 14 12 13 14 12 10 8 7 5 6 5 4 4 4 4 4 6 6 6
8 9 8 7 6 5 10 13 13 9 8 9 11 15 12 13 11 11 12 12 13 14 13 14 15 14 13 14 14 12 9 7 6 5 5 4 4 4 4 5 7 8 8 6
6 3 6 7 7 6 6 9 8 8 10 9 11 11 10 11 10 8 10 12 15 18 14 14 15 15 14 14 13 12 9 7 5 5 5 4 4 4 4 3 6 6 6 9
7 4 4 7 8 4 9 9 4 5 7 7 8 4 7 10 5 11 14 17 14 12 12 15 15 14 15 14 13 10 8 7 6 5 5 4 4 4 3 4 4 4 4 7
11 11 13 10 5 10 7 4 7 8 7 7 6 8 7 9 11 13 10 9 11 11 11 14 14 15 16 16 14 12 9 6 6 5 5 4 4 3 3 4 5 6 7 5
12 15 16 15 17 14 13 11 12 11 9 9 8 9 10 10 10 7 8 12 14 14 13 13 14 14 15 15 14 10 9 9 8 6 5 5 4 4 4 4 4 5 5 6
12 14 12 12 11 11 10 9 11 11 10 8 12 12 6 7 6 8 11 13 12 9 12 13 13 14 14 14 14 9 7 8 8 5 6 5 4 4 4 4 5 5 5 5
15 14 10 8 7 8 8 8 8 10 11 12 9 6 6 8 12 9 9 9 6 7 11 12 14 14 13 13 11 9 8 7 7 6 6 6 5 4 5 5 5 6 6 6
13 14 14 15 15 15 13 11 12 11 8 7 5 9 9 9 9 6 10 10 11 11 9 11 15 15 13 13 12 8 8 8 7 6 6 6 5 5 5 5 6 6 6 6
8 7 9 12 11 11 12 11 8 8 7 5 5 5 7 7 6 7 10 11 9 5 14 14 14 13 12 13 12 8 9 9 7 6 6 6 6 6 5 7 7 7 6 7
7 6 8 7 8 5 7 5 5 7 5 5 6 8 7 3 7 9 9 7 6 11 14 17 12 9 10 12 10 8 8 8 7 6 6 6 6 6 6 6 6 6 7 7
4 6 7 6 6 5 4 4 3 4 4 4 4 2 3 4 6 6 1 6 8 13 11 9 10 13 11 14 9 8 8 8 6 5 5 6 6 6 6 6 6 6 7 7
7 7 7 5 5 4 2 2 3 3 4 4 2 3 4 4 7 8 7 8 10 11 9 9 12 15 16 9 8 8 9 7 6 6 6 6 6 6 6 6 6 6 7 8
6 6 5 1 2 2 4 1 2 3 2 2 2 4 6 5 4 1 3 11 14 14 9 10 13 15 13 8 8 8 7 6 6 5 6 6 6 6 6 6 7 7 8 9
6 5 3 4 6 4 2 3 1 1 2 1 3 4 4 3 2 5 6 8 13 11 9 12 14 14 8 7 7 7 6 5 5 6 6 5 6 6 6 6 7 7 8 8
3 4 4 6 4 3 3 3 2 2 2 2 2 3 3 3 3 6 5 8 10 9 9 9 9 8 7 7 7 6 5 5 6 6 6 6 7 7 7 7 7 7 8 8
2 1 2 3 4 4 4 4 4 3 4 3 3 3 4 4 5 6 7 8 8 7 7 7 7 7 7 7 6 6 6 6 6 6 6 6 7 7 7 7 7 7 7 8
Wind_Direction
74 61 17 323 200 167 208 188 204 264 228 269 252 240 225 209 187 182 185 185 183 180 178 176 175 166 165 165 160 156 154 151 147 149 151 140 116 52 8 356 347 340 339 345
347 40 29 288 188 235 245 253 250 258 270 285 259 259 216 200 185 196 196 192 185 187 180 178 180 176 173 171 171 173 166 161 159 166 171 158 144 328 333 336 334 327 338 338
231 23 355 283 237 235 237 240 248 246 270 276 262 240 238 214 201 206 200 190 188 190 183 184 186 177 180 176 173 179 172 167 171 176 181 176 194 310 324 325 323 335 341 333
145 164 247 302 202 184 225 254 239 260 259 261 272 275 270 238 209 203 191 190 193 187 185 188 181 179 174 175 180 181 177 175 178 187 188 180 234 306 313 317 327 337 334 328
169 220 327 276 159 135 185 281 250 264 285 284 304 284 259 209 206 198 191 192 195 188 182 175 176 175 175 179 183 184 182 184 187 195 190 190 258 304 319 316 326 330 326 322
132 202 240 231 194 157 148 295 247 245 288 278 182 311 303 189 177 183 190 187 177 175 173 175 176 173 177 183 185 191 186 187 185 189 191 208 256 298 312 314 318 323 320 319
167 218 278 238 180 137 134 246 262 249 257 179 207 236 328 174 171 180 179 178 174 175 184 184 171 173 183 182 194 186 176 176 181 184 194 206 237 279 299 311 316 314 316 314
169 198 255 174 122 178 208 220 236 241 236 223 225 269 261 198 180 175 175 173 179 181 186 177 175 177 184 191 179 169 172 179 184 189 191 201 237 262 293 308 309 313 317 317
189 206 229 206 221 208 172 222 224 236 239 218 210 215 203 208 196 193 190 186 183 186 179 178 180 186 186 182 168 168 174 185 187 192 202 207 238 254 279 291 299 309 314 318
123 202 233 237 254 254 219 230 243 238 254 201 218 211 215 214 211 203 196 194 183 181 185 182 185 189 191 167 167 171 181 185 189 201 204 217 234 249 264 281 297 306 313 317
264 281 283 266 244 250 248 238 250 248 226 227 226 228 217 212 216 211 201 193 189 193 192 189 183 185 175 167 168 177 182 184 194 203 209 223 233 250 258 276 289 301 309 311
232 220 226 242 257 256 242 249 242 244 245 237 221 234 214 228 224 211 206 192 194 200 197 186 182 181 175 170 175 177 182 188 194 199 204 218 229 237 225 276 276 290 301 306
251 238 229 253 271 266 241 249 246 226 231 244 234 237 232 239 232 221 211 200 203 202 194 181 181 181 176 174 175 178 187 186 185 195 204 214 226 251 282 275 283 288 305 317
235 236 260 243 244 229 233 251 239 246 249 241 257 233 240 238 200 213 214 214 207 188 179 181 180 178 173 169 171 173 182 176 186 191 202 208 223 252 283 297 301 298 287 308
243 212 230 240 229 243 231 226 239 247 255 260 239 249 243 243 237 231 228 201 183 179 179 182 175 175 169 168 169 172 176 178 181 189 196 203 214 233 261 281 297 311 321 323
237 235 239 244 251 252 236 239 241 247 252 257 262 257 248 243 253 237 190 174 171 191 185 177 179 164 164 168 169 170 176 170 176 185 190 205 214 233 251 262 280 292 300 312
251 256 261 260 260 271 251 242 236 245 243 239 249 254 252 251 232 220 209 198 198 177 174 171 171 163 164 163 167 168 171 168 173 189 203 210 217 234 250 261 277 285 292 295
238 250 247 252 250 245 250 240 242 243 240 249 259 246 213 198 227 220 196 175 144 148 174 171 157 154 159 157 162 162 167 165 175 197 203 209 219 232 247 256 272 280 293 300
250 254 258 264 266 264 261 243 239 247 244 238 215 227 220 221 223 185 158 165 174 176 175 150 151 152 157 157 157 158 164 167 179 196 207 209 215 233 245 254 268 274 288 299
265 249 251 257 257 235 249 253 262 259 256 228 225 243 241 232 170 161 170 188 193 178 149 153 155 161 153 157 154 163 167 174 186 197 203 212 224 237 250 253 266 276 284 288
294 292 282 273 273 250 242 259 240 251 262 234 221 240 236 169 162 154 161 185 167 154 154 153 157 154 161 157 163 166 170 178 191 200 208 214 229 241 256 261 266 275 281 284
294 295 287 275 270 275 241 263 284 293 291 285 269 235 158 164 151 156 169 184 158 155 149 155 164 161 155 153 164 168 177 188 194 200 213 219 230 244 257 258 266 275 280 281
288 283 284 282 262 277 325 334 331 323 321 316 280 206 202 193 181 166 175 165 155 161 157 160 151 145 144 156 164 174 183 186 195 209 219 223 232 246 255 259 268 278 283 283
281 278 264 236 223 227 260 243 324 346 295 286 231 192 170 160 168 201 114 151 153 155 158 147 146 145 154 161 170 174 178 189 205 214 220 229 237 246 251 262 271 275 277 279
274 272 232 213 232 243 211 155 159 227 208 152 132 158 171 168 184 172 158 149 152 153 142 141 146 149 158 163 166 169 182 196 205 209 219 231 240 247 256 264 269 275 279 279
256 238 228 232 236 202 179 170 213 207 186 123 121 145 144 141 135 136 123 135 150 141 144 151 155 156 158 163 167 175 186 197 204 216 227 239 247 254 261 266 271 271 272 277
248 211 220 242 240 216 182 181 184 204 195 188 169 174 159 137 128 123 129 143 150 149 143 144 152 162 160 163 174 185 197 210 218 227 233 246 253 259 263 267 272 275 277 277